Showing default

CHINASAT 10R, 63075

Orbit data source: Space-Track

CHINASAT 10R, 63075 is a payload satellite owned by China Satcom (CN) in GEO that was launched on Sat, 22 Feb 2025 UTC via a CHANG ZHENG 3B launch vehicle from the Xichang Space Center, China (XSC). Payload-class satellites include a variety of spacecraft equipped with specific instruments for various scientific and technological missions. These include communications satellites like Starlink; space stations such as the ISS; scientific satellites like the Hubble; Earth observation satellites from companies like Planet Labs, Umbra, and HawkEye 360; GPS; miniature CubeSats for education and research; and military/defense satellites.

Not visible in the next 10 days
Identifier
63075, 2025-036A
Orbit
GEO
Country
Flag of CNCN / PRC
Related business
Manufacturer
CAST?
Mission
Operational Civil Communications
Bus & Motor
DFH-4?, DFH-4 LAE
Mass
~5,250 kg wet, ~2,500 kg dry
Launch date (UTC)
2025-02-22 (1 year ago)
Launch vehicle
CHANG ZHENG 3B
Launch site
Xichang Space Center, China (XSC)
Object type
Payload
Rocket body
Debris
Shape & HBR
Box + 2 Pan, 22.5 m
Radar Cross Section
34.063 m², Large (>1 m²)

Expand to show TLE details & history
Last TLE update: 4 hours ago

TLE from 4 hours ago
0 CHINASAT 10R
1 63075U 25036A   26170.21850492 -.00000358  00000-0  00000+0 0  9990
2 63075   0.0099 305.3349 0003544 193.4729 317.8363  1.00271017  4980
Epoch: 2026-06-19T05:14Z
TLE epoch observation values (Epoch: 2026-06-19T05:14:38.825Z)
Latitude
0.01828°
Longitude
110.5172°
Altitude
35,775.183 km
Speed
3.076 km/s
True Right ascension
06h 26m 31s
True Declination
0° 01' 06"
Sunlit
Object was in daylight at epoch
Visualization orbit readout
Latitude
Unknown
Longitude
Unknown
Altitude
Unknown
Speed
Unknown
Apparent Right ascension
Unknown
Apparent Declination
Unknown
Sunlit
N/A
Visualization observer readout
Local Sidereal Time
20:21:05
Azimuth
Unknown
Elevation
Unknown
Doppler factor
Unknown
Orbital elements
Apogee altitude
35,802.824 km
Perigee altitude
35,772.937 km
Semi-major axis
42,166.018 km
Eccentricity
0.00035
Inclination
0.0099°
RAAN
305.3349°
Arg. of periapsis
193.4729°
True anomaly
317.80903°
Mean anomaly
317.8363°
Eccentric anomaly
317.82267°
Mean motion
0.25067 °/min
Orbital period
1,436.16 mins
BSTAR
0
Loading maneuver chart data...
Computing Atmospheric mass density...
Loading historical data...
Loading historical data...
Loading historical data...
Loading historical data...
Loading historical data...
Loading historical data...
Loading historical data...
Other satellites on launch #36 in the year 2025 (2025-02-22 UTC)

Documentation

Showing up to 5 results
|